Location: Boitzum
(52.1496°N, 9.6943°E)
Time: 00:31:57
(UTC+00:00)

Cosmos 1515 Rocket - Pass Details

Date: 13 January 2026
Orbit: 599 x 623 km, 82.5° (Epoch: 9 February)

Event Time Altitude Azimuth Distance (km) Brightness Sun altitude
Exits shadow 05:06:02 50° 257° (WSW) 791 3.7 -20.4°
Drops below altitude 10° 05:10:06 10° 191° (S) 1,975 6.1 -19.8°
Sets 05:12:21 0° 186° (S) 2,872 7.0 -19.4°
